Regional Weather Roundup
Issued by NWS

Home | Current Version | Previous Version | Text Only | Print | Product List | Glossary On
Versions: 1 2 3 4 5 6 7 8 9 10 11 12 13 14 15 16 17 18 19 20 21 22 23 24 25 26 27 28 29 30 31 32 33 34 35 36 37 38 39 40 41 42 43 44 45 46 47 48 49 50
000
ASUS43 KMKX 220200
RWRWI

WISCONSIN REGIONAL WEATHER ROUNDUP
NATIONAL WEATHER SERVICE MILWAUKEE/SULLIVAN WI
900 PM CDT TUE OCT 21 2014

NOTE: "FAIR" INDICATES FEW OR NO CLOUDS BELOW 12,000 FEET WITH NO
SIGNIFICANT WEATHER AND/OR OBSTRUCTIONS TO VISIBILITY.

WIZ001-002-006>008-014>016-023>028-220300-
NORTHWEST WISCONSIN

CITY           SKY/WX    TMP DP  RH WIND       PRES   REMARKS
SUPERIOR ARPT  CLEAR     41  37  84 E7        30.21R
ASHLAND        CLEAR     37  36  96 E3        30.24R
HAYWARD        CLEAR     44  35  70 SE5       30.21R
SIREN          CLEAR     42  34  75 CALM      30.19R
CUMBERLAND     CLEAR     43  34  70 SE7       30.20R
RICE LAKE      CLEAR     44  36  71 SE7       30.21S
CHETEK         CLEAR     43  36  75 E7        30.22R
LADYSMITH      CLEAR     44  35  71 SE5       30.24R
EAU CLAIRE     CLEAR     45  35  68 E8        30.22R
MENOMONIE      NOT AVBL
NEW RICHMOND   CLEAR     43  35  73 SE5       30.19R
OSCEOLA        CLEAR     43  36  75 SE6       30.21R
$$

WIZ003>005-009-010-017-018-220300-
NORTH CENTRAL WISCONSIN

CITY           SKY/WX    TMP DP  RH WIND       PRES   REMARKS
MANITOWISH WTR CLEAR     31  31 100 CALM      30.23R
ARBOR VITAE    CLEAR     37  34  90 CALM      30.24R
WOODRUFF       CLEAR     37  34  90 CALM      30.24R
RHINELANDER    CLEAR     33  31  92 CALM      30.25R
EAGLE RIVER    CLEAR     31  31 100 CALM      30.24R FOG
LAND O LAKES   CLEAR     29  29  99 CALM      30.25R
PHILLIPS       CLEAR     34  31  88 CALM      30.22R
TOMAHAWK       CLEAR     31  30  94 CALM      30.25R
MEDFORD        CLEAR     34  32  93 SE3       30.24R
MERRILL          N/A     33  32  94 CALM      30.25R FOG
$$

WIZ029-030-035-036-043>047-220300-
CENTRAL WISCONSIN

CITY           SKY/WX    TMP DP  RH WIND       PRES   REMARKS
WAUSAU         CLEAR     40  34  79 E6        30.25R
MOSINEE        CLEAR     41  34  75 SE3       30.26R
MARSHFIELD     CLEAR     41  34  76 CALM      30.24R
STEVENS POINT  CLEAR     33  31  92 CALM      30.26R
WAUPACA        CLEAR     39  35  85 CALM      30.27R
WAUTOMA        NOT AVBL
WISC RAPIDS    CLEAR     36  33  89 CALM      30.27R
CAMP DOUGLAS   NOT AVBL
$$

WIZ011>013-019>022-031-037>040-048>050-220300-
NORTHEAST WISCONSIN

CITY           SKY/WX    TMP DP  RH WIND       PRES   REMARKS
ANTIGO         CLEAR     36  32  84 SE7       30.26R WCI  31
SHAWANO        CLEAR     42  35  77 CALM      30.28R
OCONTO         CLEAR     35  34  99 CALM      30.28R
STURGEON BAY   CLEAR     41  30  65 NE6       30.29R
GREEN BAY      CLEAR     37  35  92 CALM      30.28R
MANITOWOC      NOT AVBL
APPLETON       CLEAR     43  27  52 VRB5      30.27R
CLINTONVILLE   CLEAR     39  32  75 CALM      30.27R
OSHKOSH        CLEAR     44  36  73 SE3       30.26R
$$

WIZ032>034-041-042-053>061-220300-
SOUTHWEST WISCONSIN

CITY           SKY/WX    TMP DP  RH WIND       PRES   REMARKS
LA CROSSE      CLEAR     47  36  65 SE8       30.23R
SPARTA         CLEAR     35  32  88 E5        30.25S WCI  31
VIROQUA        CLEAR     42  36  79 SE7       30.23S
BOSCOBEL       CLEAR     43  36  76 CALM      30.26R
PRAIRIE DU CHI CLEAR     46  36  69 E7        30.24R
PLATTEVILLE    CLEAR     40  36  84 E6        30.26R
$$

WIZ056-057-062-063-064-067-068-220300-
SOUTH CENTRAL WISCONSIN

CITY           SKY/WX    TMP DP  RH WIND       PRES   REMARKS
REEDSBURG      CLEAR     39  35  84 CALM      30.26R
BARABOO/DELLS  CLEAR     36  33  89 CALM      30.26R
LONE ROCK      NOT AVBL
MINERAL POINT  CLEAR     41  36  81 E5        30.25R
MADISON        CLEAR     36  33  89 CALM      30.27R
MIDDLETON      CLEAR     35  34  96 CALM      30.26S
WATERTOWN      CLEAR     33  32  98 CALM      30.26R
MONROE         CLEAR     41  36  81 NE5       30.24S
JANESVILLE     CLEAR     41  36  81 CALM      30.25R
$$

WIZ051-052-058>065-066-070>072-220300-
SOUTHEAST WISCONSIN

CITY           SKY/WX    TMP DP  RH WIND       PRES   REMARKS
MILWAUKEE      PTCLDY    45  35  68 NE10      30.27R
WAUKESHA       CLEAR     39  36  87 CALM      30.27R
MILWAUKEE/TIMM CLEAR     39  34  81 CALM      30.28R
RACINE         CLEAR     45  34  65 NE10      30.28R
BURLINGTON       N/A     33  32  99 CALM      30.26R FOG
KENOSHA        CLEAR     40  36  86 N6        30.27R
FOND DU LAC    CLEAR     40  34  79 E6        30.27R
SHEBOYGAN      CLEAR     35  33  92 CALM      30.28R
WEST BEND      CLEAR     36  32  87 CALM      30.27R
JUNEAU         CLEAR     38  35  86 N3        30.27R
$$

LSZ147-162-220300-
LAKE SUPERIOR

STATION/POSITION TIME  TEMP    WIND        PRES    WAVE
                       AIR SEA DIR/SP/G            HT/PER
                 (UTC) (F)     (DEG/KT/KT) (MB)    (FT/S)
W MID LAKE BUOY  0050   43 46   90/ 16/ 17 1024.7F   2/ 5
DEVILS ISLAND    0100   44     100/ 16/ 17 1024.7R
PORT WING        0100   41     100/  3/  6 1023.4
SAXON HARBOR     0100   37        CALM     1023.7
$$

LMZ867-665-643>646-220300-
LAKE MICHIGAN

STATION/POSITION TIME  TEMP    WIND        PRES    WAVE
                       AIR SEA DIR/SP/G            HT/PER
                 (UTC) (F)     (DEG/KT/KT) (MB)    (FT/S)
CHAMBERS ISLAND  0100   46      20/ 15/ 18 1025.4R
N MID LAKE BUOY  0050   47 51   20/ 14/ 16 1025.3R   1/ 3
NORTHPORT PIER   0100   45      20/ 11/ 14 1025.1S
SISTER BAY       0043           40/  6/  9   N/A
KEWAUNEE LAKESHO 0100   47      60/  6/  9 1024.0R
SHEBOYGAN LAKESH 0100   47 50   30/ 15/ 16 1025.2R
PORT WASHINGTON  0140   43     340/  3/  6 1025.7R
ATWATER BUOY     0100   49      20/ 16/ 19 1025.1R
MILWAUKEE LAKESH 0100   48      30/ 15/ 17   N/A
S MID LAKE BUOY  0050   49 54  350/ 14/ 17 1023.9R   5/ 7
KENOSHA   LAKESH 0100   48      20/ 16/ 19 1024.0R
$$

TC  - TEMPERATURE IN CELSIUS
VSB - VISIBILITY IN STATUTE MILES
WCI - WIND CHILL INDEX
HX  - HEAT INDEX




USA.gov is the U.S. government's official web portal to all federal, state and local government web resources and services.